When you browse on this site, cookies collect data to enhance your experience and personalize the content and advertising you see.
Visit our Privacy Policy to learn more. By continuing to use the site, you agree to this use of cookies and data.
  • Em Portugal
  • Lista de países
  • Para 7 dias
  • Temperatura da água
  • Mapas de satélite
  • Mapa do tempo
  • Widgets de tempo
  • user-avatar
    Iniciar Sessão

    Previsão horária em Kuroksha

    Hoje, 19 Maio, Domingo

    Tempo Temperatura Precipitação Vento Pressão Humidade
    00:00 +14°C° 0 mm 2 m/s 761 mmHg 76%
    01:00 +13°C° 0 mm 2 m/s 761 mmHg 76%
    02:00 +13°C° 0 mm 2 m/s 761 mmHg 74%
    03:00 +13°C° 0 mm 2 m/s 761 mmHg 74%
    04:00 +12°C° 0 mm 2 m/s 761 mmHg 74%
    05:00 +12°C° 0 mm 2 m/s 761 mmHg 74%
    06:00 +14°C° 0 mm 2 m/s 761 mmHg 69%
    07:00 +16°C° 0 mm 2 m/s 761 mmHg 64%
    08:00 +17°C° 0 mm 2 m/s 760 mmHg 60%
    09:00 +19°C° 0 mm 2 m/s 760 mmHg 55%
    10:00 +20°C° 0 mm 3 m/s 760 mmHg 51%
    11:00 +22°C° 0 mm 3 m/s 760 mmHg 46%
    12:00 +24°C° 0 mm 3 m/s 760 mmHg 44%
    13:00 +24°C° 0 mm 3 m/s 760 mmHg 42%
    14:00 +25°C° 0 mm 3 m/s 760 mmHg 40%
    15:00 +25°C° 0 mm 3 m/s 760 mmHg 42%
    16:00 +25°C° 0 mm 3 m/s 759 mmHg 43%
    17:00 +25°C° 0 mm 3 m/s 759 mmHg 45%
    18:00 +22°C° 0 mm 3 m/s 759 mmHg 52%
    19:00 +21°C° 0 mm 2 m/s 759 mmHg 59%
    20:00 +19°C° 0 mm 2 m/s 759 mmHg 67%
    21:00 +18°C° 0 mm 2 m/s 759 mmHg 70%
    22:00 +17°C° 0 mm 3 m/s 760 mmHg 73%
    23:00 +16°C° 0 mm 3 m/s 760 mmHg 75%

    Amanhã, 20 Maio, Segunda-feira

    Tempo Temperatura Precipitação Vento Pressão Humidade
    00:00 +16°C° 0 mm 2 m/s 760 mmHg 78%
    01:00 +15°C° 0 mm 2 m/s 760 mmHg 80%
    02:00 +14°C° 0 mm 2 m/s 760 mmHg 83%
    03:00 +14°C° 0 mm 2 m/s 760 mmHg 83%
    04:00 +13°C° 0 mm 3 m/s 760 mmHg 83%
    05:00 +13°C° 0 mm 3 m/s 760 mmHg 83%
    06:00 +16°C° 0 mm 3 m/s 760 mmHg 78%
    07:00 +17°C° 0 mm 3 m/s 760 mmHg 72%
    08:00 +19°C° 0 mm 3 m/s 760 mmHg 67%
    09:00 +20°C° 0 mm 4 m/s 760 mmHg 62%
    10:00 +22°C° 0 mm 4 m/s 760 mmHg 57%
    11:00 +25°C° 0 mm 5 m/s 760 mmHg 51%
    12:00 +25°C° 0 mm 5 m/s 759 mmHg 50%
    13:00 +26°C° 0 mm 5 m/s 759 mmHg 48%
    14:00 +26°C° 0 mm 5 m/s 759 mmHg 46%
    15:00 +26°C° 0 mm 5 m/s 759 mmHg 47%
    16:00 +26°C° 0 mm 4 m/s 759 mmHg 48%
    17:00 +26°C° 0 mm 4 m/s 758 mmHg 49%
    18:00 +23°C° 0 mm 4 m/s 758 mmHg 55%
    19:00 +22°C° 0 mm 3 m/s 758 mmHg 61%
    20:00 +20°C° 0 mm 3 m/s 758 mmHg 67%
    21:00 +20°C° 0 mm 3 m/s 758 mmHg 68%
    22:00 +19°C° 0 mm 3 m/s 758 mmHg 68%
    23:00 +19°C° 0 mm 3 m/s 759 mmHg 69%

    Depois de amanhã, 21 Maio, Terça-feira

    Tempo Temperatura Precipitação Vento Pressão Humidade
    00:00 +18°C° 0 mm 3 m/s 758 mmHg 71%
    01:00 +17°C° 0 mm 3 m/s 758 mmHg 73%
    02:00 +17°C° 0 mm 3 m/s 758 mmHg 76%
    03:00 +17°C° 0 mm 3 m/s 758 mmHg 75%
    04:00 +17°C° 0 mm 3 m/s 758 mmHg 75%
    05:00 +17°C° 0 mm 3 m/s 758 mmHg 74%
    06:00 +17°C° 0 mm 3 m/s 758 mmHg 74%
    07:00 +17°C° 0 mm 3 m/s 758 mmHg 74%
    08:00 +18°C° 0 mm 3 m/s 758 mmHg 74%
    09:00 +19°C° 0 mm 3 m/s 758 mmHg 70%
    10:00 +20°C° 0 mm 3 m/s 757 mmHg 66%
    11:00 +22°C° 0 mm 3 m/s 757 mmHg 62%
    12:00 +24°C° 0 mm 3 m/s 757 mmHg 59%
    13:00 +25°C° 0 mm 3 m/s 757 mmHg 55%
    14:00 +26°C° 0 mm 3 m/s 756 mmHg 52%
    15:00 +26°C° 0 mm 3 m/s 756 mmHg 53%
    16:00 +26°C° 0 mm 3 m/s 755 mmHg 54%
    17:00 +26°C° 0 mm 3 m/s 755 mmHg 55%
    18:00 +25°C° 0 mm 3 m/s 755 mmHg 63%
    19:00 +23°C° 0 mm 2 m/s 755 mmHg 72%
    20:00 +21°C° 0 mm 2 m/s 755 mmHg 80%
    21:00 +20°C° 0.1 mm 2 m/s 755 mmHg 84%
    22:00 +19°C° 0.1 mm 2 m/s 755 mmHg 87%
    23:00 +18°C° 0.1 mm 2 m/s 755 mmHg 91%

    22 Maio, Quarta-feira

    Tempo Temperatura Precipitação Vento Pressão Humidade
    00:00 +17°C° 0 mm 2 m/s 754 mmHg 93%
    01:00 +17°C° 0 mm 2 m/s 754 mmHg 94%
    02:00 +16°C° 0 mm 2 m/s 754 mmHg 96%
    03:00 +16°C° 0 mm 2 m/s 754 mmHg 96%
    04:00 +16°C° 0 mm 2 m/s 754 mmHg 95%
    05:00 +16°C° 0 mm 2 m/s 754 mmHg 95%
    06:00 +18°C° 0 mm 2 m/s 753 mmHg 90%
    07:00 +19°C° 0 mm 2 m/s 753 mmHg 85%
    08:00 +21°C° 0 mm 2 m/s 753 mmHg 80%
    09:00 +23°C° 0 mm 2 m/s 753 mmHg 73%
    10:00 +24°C° 0 mm 2 m/s 752 mmHg 67%
    11:00 +26°C° 0 mm 2 m/s 752 mmHg 60%
    12:00 +26°C° 0.3 mm 2 m/s 752 mmHg 59%
    13:00 +27°C° 0.3 mm 2 m/s 751 mmHg 57%
    14:00 +27°C° 0.3 mm 2 m/s 751 mmHg 55%
    15:00 +27°C° 0.1 mm 2 m/s 751 mmHg 56%
    16:00 +27°C° 0.1 mm 1 m/s 751 mmHg 56%
    17:00 +26°C° 0.1 mm 1 m/s 750 mmHg 57%
    18:00 +25°C° 0.9 mm 1 m/s 750 mmHg 66%
    19:00 +23°C° 0.9 mm 1 m/s 750 mmHg 76%
    20:00 +20°C° 0.9 mm 2 m/s 750 mmHg 85%
    21:00 +20°C° 0 mm 1 m/s 750 mmHg 88%
    22:00 +20°C° 0 mm 1 m/s 750 mmHg 91%
    23:00 +19°C° 0 mm 1 m/s 750 mmHg 93%

    23 Maio, Quinta-feira

    Tempo Temperatura Precipitação Vento Pressão Humidade
    00:00 +17°C° 0 mm 2 m/s 750 mmHg 94%
    01:00 +17°C° 0 mm 2 m/s 750 mmHg 95%
    02:00 +17°C° 0 mm 2 m/s 750 mmHg 96%
    03:00 +16°C° 0.6 mm 2 m/s 750 mmHg 96%
    04:00 +16°C° 0.6 mm 3 m/s 750 mmHg 97%
    05:00 +16°C° 0.6 mm 3 m/s 750 mmHg 97%
    06:00 +14°C° 0.6 mm 3 m/s 750 mmHg 97%
    07:00 +14°C° 0.6 mm 3 m/s 750 mmHg 96%
    08:00 +14°C° 0.6 mm 3 m/s 750 mmHg 95%
    09:00 +14°C° 0.4 mm 4 m/s 751 mmHg 95%
    10:00 +13°C° 0.4 mm 4 m/s 751 mmHg 94%
    11:00 +13°C° 0.4 mm 4 m/s 751 mmHg 93%
    12:00 +13°C° 0.1 mm 4 m/s 751 mmHg 92%
    13:00 +13°C° 0.1 mm 4 m/s 751 mmHg 90%
    14:00 +13°C° 0.1 mm 4 m/s 751 mmHg 89%
    15:00 +13°C° 0.1 mm 3 m/s 751 mmHg 87%
    16:00 +14°C° 0.1 mm 3 m/s 751 mmHg 85%
    17:00 +15°C° 0.1 mm 2 m/s 752 mmHg 83%
    18:00 +15°C° 0.1 mm 2 m/s 752 mmHg 82%
    19:00 +13°C° 0.1 mm 3 m/s 752 mmHg 81%
    20:00 +13°C° 0.1 mm 3 m/s 752 mmHg 81%
    21:00 +12°C° 0 mm 3 m/s 752 mmHg 76%
    22:00 +11°C° 0 mm 4 m/s 752 mmHg 71%
    23:00 +10°C° 0 mm 4 m/s 752 mmHg 66%

    24 Maio, Sexta-feira

    Tempo Temperatura Precipitação Vento Pressão Humidade
    00:00 +10°C° 0 mm 4 m/s 752 mmHg 66%
    01:00 +10°C° 0 mm 4 m/s 752 mmHg 65%
    02:00 +8°C° 0 mm 4 m/s 752 mmHg 64%
    03:00 +10°C° 0 mm 4 m/s 752 mmHg 65%
    04:00 +10°C° 0 mm 4 m/s 752 mmHg 67%
    05:00 +10°C° 0 mm 4 m/s 753 mmHg 68%
    06:00 +10°C° 0 mm 4 m/s 753 mmHg 67%
    07:00 +10°C° 0 mm 4 m/s 753 mmHg 65%
    08:00 +11°C° 0 mm 4 m/s 753 mmHg 64%
    09:00 +11°C° 0 mm 4 m/s 753 mmHg 62%
    10:00 +12°C° 0 mm 4 m/s 754 mmHg 59%
    11:00 +12°C° 0 mm 5 m/s 754 mmHg 57%
    12:00 +13°C° 0 mm 4 m/s 754 mmHg 53%
    13:00 +14°C° 0 mm 4 m/s 754 mmHg 50%
    14:00 +15°C° 0 mm 4 m/s 754 mmHg 47%
    15:00 +14°C° 0 mm 4 m/s 754 mmHg 47%
    16:00 +14°C° 0 mm 4 m/s 754 mmHg 48%
    17:00 +14°C° 0 mm 4 m/s 755 mmHg 48%
    18:00 +13°C° 0 mm 3 m/s 755 mmHg 53%
    19:00 +12°C° 0 mm 3 m/s 755 mmHg 57%
    20:00 +12°C° 0 mm 2 m/s 755 mmHg 62%
    21:00 +12°C° 0 mm 2 m/s 755 mmHg 63%
    22:00 +10°C° 0 mm 3 m/s 756 mmHg 64%
    23:00 +9°C° 0 mm 3 m/s 756 mmHg 65%
    Mostrar mais